Theta_e
281 281 282 282 282 282 283 284 285 286 288 289 297 305 308 314 318 326 329 325 323 325 326 327 327 326 323
281 281 281 281 282 283 283 283 284 286 287 289 291 294 304 307 312 319 327 328 324 324 324 326 327 326 325
280 281 281 281 282 282 282 284 285 287 290 293 294 295 299 304 305 319 320 328 326 325 326 326 327 326 325
280 281 281 281 281 282 283 284 285 291 291 291 292 292 295 302 303 309 319 327 327 326 326 328 323 325 326
281 281 281 281 281 282 282 283 285 288 290 290 295 297 297 298 303 305 313 320 326 327 327 326 327 327 325
282 281 281 281 281 282 283 283 287 288 289 290 290 291 293 297 303 303 308 318 318 325 327 327 325 327 326
285 284 284 283 283 283 283 284 284 285 286 288 289 290 290 294 300 302 305 308 313 324 324 328 325 324 327
284 284 284 283 283 283 283 284 285 285 286 288 287 288 289 292 298 301 304 304 311 321 324 324 323 327 327
286 285 284 283 284 284 283 284 284 285 285 286 287 287 290 292 296 301 305 304 308 320 322 323 325 325 324
286 285 285 285 284 285 286 286 285 285 285 287 290 292 292 297 299 300 306 304 306 314 320 323 325 326 325
287 287 286 285 284 284 283 284 284 285 286 286 287 289 289 290 294 299 303 304 304 310 319 320 322 325 325
287 287 287 287 286 286 285 285 285 285 286 286 288 289 291 291 292 294 300 304 302 305 313 317 318 323 324
286 287 287 287 287 287 286 286 287 287 288 289 289 289 290 291 292 291 293 299 300 303 308 311 314 317 323
284 285 286 287 287 287 287 287 288 289 288 290 290 290 291 291 290 290 291 294 299 302 302 303 311 313 317
282 283 285 286 287 288 288 288 288 288 288 289 290 290 290 289 289 289 290 292 294 298 300 302 304 311 316
281 282 282 284 286 286 288 288 288 289 289 289 289 289 289 289 289 289 289 290 292 293 298 301 305 307 313
281 281 282 282 283 284 285 286 287 287 288 287 287 288 287 288 289 289 289 290 291 293 298 300 302 305 305
Wind_Speed
42 42 44 41 42 39 36 34 34 34 31 31 43 42 33 39 36 52 58 63 62 58 60 61 56 56 51
44 43 43 41 38 34 36 35 32 30 28 27 32 38 42 35 37 40 65 69 66 64 62 60 58 56 57
44 39 42 38 36 38 36 32 27 24 22 22 26 34 45 30 31 43 50 66 70 68 65 67 63 61 61
40 40 39 38 33 35 34 31 26 19 25 26 26 28 34 46 35 32 50 68 66 68 70 73 62 54 57
39 39 38 33 32 30 33 32 26 22 24 23 13 18 28 43 41 23 39 46 63 71 70 68 67 63 59
42 41 40 36 33 30 31 31 26 17 16 23 26 28 32 34 44 38 24 50 40 78 73 72 66 63 60
46 47 46 42 39 38 38 34 37 35 30 32 30 35 29 29 42 45 28 25 39 51 71 70 65 61 56
40 42 43 39 35 34 33 33 33 35 27 33 35 38 34 28 34 45 41 28 34 48 50 61 54 60 63
38 37 37 33 29 30 34 35 37 33 30 30 36 36 31 28 24 40 44 31 29 53 56 66 66 62 58
36 33 33 35 32 32 33 34 33 35 32 21 17 22 11 7 12 25 41 32 24 34 59 63 62 60 61
40 35 31 26 26 30 33 35 35 37 35 29 29 29 29 27 19 15 30 30 21 19 51 62 64 64 65
33 39 34 32 29 22 24 29 31 34 24 27 28 23 19 22 25 23 23 34 21 15 27 47 60 67 71
18 28 35 32 28 26 27 24 24 26 25 24 26 25 22 23 23 24 22 33 28 17 17 18 36 59 73
18 20 20 22 31 21 22 23 26 26 27 24 24 24 26 23 24 27 25 18 14 16 21 14 21 35 49
16 16 16 8 23 25 22 21 25 26 24 20 17 17 20 21 27 29 26 24 26 27 26 23 15 25 43
14 13 13 13 14 7 21 27 27 30 25 21 18 18 21 26 26 27 23 24 31 30 23 22 19 13 32
16 15 14 13 13 15 17 15 15 18 20 19 20 20 22 27 25 21 19 21 20 20 21 21 24 19 10
Wind_Direction
282 285 287 288 290 294 291 286 282 279 274 273 262 259 255 239 235 222 223 224 226 227 225 225 223 220 219
281 284 286 290 294 293 292 290 288 281 278 274 265 265 260 254 249 220 216 216 223 225 227 225 219 219 216
275 279 284 287 287 290 294 293 291 284 279 279 271 259 257 263 273 234 231 212 222 220 223 230 223 220 220
271 274 277 282 282 287 290 288 291 285 278 282 286 270 258 256 269 264 241 222 218 226 223 217 213 221 220
268 271 272 275 275 283 282 293 285 283 291 284 279 261 253 254 258 278 249 237 218 223 223 221 224 227 225
268 267 271 270 280 277 279 288 288 291 279 283 282 280 270 251 252 263 257 236 230 222 219 222 220 226 226
268 268 272 274 277 275 276 277 278 281 288 280 281 284 284 252 247 256 272 253 235 210 224 223 219 220 225
258 266 272 273 270 272 273 276 281 277 277 281 279 283 292 263 241 249 256 289 253 210 214 217 224 221 221
271 269 265 265 265 269 268 267 270 271 273 276 279 288 289 273 243 248 251 279 291 225 220 223 220 220 221
275 270 267 262 263 259 260 260 261 269 276 262 282 294 291 282 219 242 240 267 285 245 225 222 222 225 220
273 270 269 271 264 255 254 256 258 258 258 265 270 272 289 293 284 253 243 247 280 238 221 219 223 222 222
280 264 266 268 266 268 258 253 255 259 265 262 266 273 286 282 291 287 250 244 286 284 219 219 223 225 223
295 271 269 272 272 273 268 266 260 261 262 260 264 270 268 275 281 285 288 252 262 283 238 219 210 224 224
291 285 284 287 264 268 267 263 269 265 274 267 261 260 262 271 282 287 284 272 236 251 273 278 212 214 216
311 305 275 300 263 262 262 261 264 262 265 269 252 268 261 272 278 281 284 277 271 263 268 279 252 214 210
326 316 308 294 275 288 256 253 257 261 261 262 264 267 274 274 271 276 284 288 274 267 258 273 268 215 209
332 325 316 306 294 279 269 260 258 262 261 266 261 269 272 271 278 283 292 288 278 268 253 255 266 252 263